FENGYUN 1C DEB, 31374

Orbit data source: Space-Track

FENGYUN 1C DEB, 31374 is space debris in SSO originally from a launch on Mon, 10 May 1999 UTC launched from the Taiyaun Space Center, China (TSC). Fengyun 1C debris stems from the Chinese weather satellite Fengyun-1C, which was intentionally destroyed by a Chinese anti-satellite missile in 2007. This event dramatically increased the amount of space debris, with thousands of trackable fragments posing hazards to satellites and human spaceflight. The Fengyun 1C debris cloud has become a focal point in discussions about space sustainability and the need for international regulations to prevent the creation of new debris.

Loading next visibility...
Identifier
31374, 1999-025BSE
Orbit
SSO
Country
Flag of CNCN / PRC
Related business
Manufacturer
Unknown
Mission
Spacecraft
Bus & Motor
Unknown
Mass
Unknown
Launch date (UTC)
1999-05-10 (26 years ago)
Launch vehicle
Unknown
Launch site
Taiyaun Space Center, China (TSC)
Object type
Payload
Rocket body
Debris
Shape & HBR
Unknown shape, 1.1 m
Radar Cross Section
Small (<0.1 m²)

Expand to show TLE details & history
Last TLE update: 10 months ago

TLE from 10 months ago
0 FENGYUN 1C DEB
1 31374U 99025BSE 25008.08332195  .00016731  00000-0  61875-2 0  9996
2 31374  99.6153 104.7044 0166900 227.8732 130.8159 14.24993800912151
Epoch: 2025-01-08T01:59Z
TLE epoch observation values (Epoch: 2025-01-08T01:59:59.016Z)
Latitude
-0°
Longitude
-33.17272°
Altitude
890.948 km
Speed
7.366 km/s
True Right ascension
06h 58m 49s
True Declination
0° 00' 00"
Sunlit
Object was in full shadow at epoch
Visualization orbit readout
Latitude
Unknown
Longitude
Unknown
Altitude
Unknown
Speed
Unknown
Apparent Right ascension
Unknown
Apparent Declination
Unknown
Sunlit
N/A
Visualization observer readout
Local Sidereal Time
06:28:39
Azimuth
Unknown
Elevation
Unknown
Doppler factor
Unknown
Orbital elements
Apogee altitude
925.608 km
Perigee altitude
685.811 km
Semi-major axis
7,183.847 km
Eccentricity
0.01669
Inclination
99.6153°
RAAN
104.7044°
Arg. of periapsis
227.8732°
True anomaly
132.2437°
Mean anomaly
130.8159°
Eccentric anomaly
131.53175°
Mean motion
3.56457 °/min
Orbital period
100.99 mins
BSTAR
0.0061875
Loading maneuver chart data...
Computing Atmospheric mass density...

Documentation

Showing up to 5 results
|